Location: Unspecified
(0.0000°N, 0.0000°E)
Time: 00:47:04
(UTC+00:00)

Courier 1B - Visible Passes

Search period start: 20 July 2019 00:00
Search period end: 30 July 2019 00:00
Orbit: 963 x 1209 km, 28.3° (Epoch: 19 July)

Date Brightness Start Highest point End Pass type
(mag) Time Alt. Az. Time Alt. Az. Time Alt. Az.
20 Jul 9.1 02:57:30 37° ENE 02:57:30 37° ENE 03:01:55 10° ENE visible
20 Jul 8.8 04:44:23 21° WNW 04:48:35 35° NNW 04:55:32 10° NE visible
21 Jul 10.3 02:07:06 13° ENE 02:07:06 13° ENE 02:07:43 10° ENE visible
21 Jul 8.3 03:53:59 47° NW 03:54:31 47° NNW 04:01:59 10° NE visible
22 Jul 9.0 03:03:34 38° NE 03:03:34 38° NE 03:08:15 10° NE visible
22 Jul 9.5 04:50:28 12° WNW 04:55:18 21° NNW 05:00:56 10° NNE visible
23 Jul 10.2 02:13:07 16° ENE 02:13:07 16° ENE 02:14:21 10° ENE visible
23 Jul 9.0 04:00:01 27° NW 04:01:07 28° NNW 04:07:37 10° NNE visible
24 Jul 9.2 03:09:32 30° N 03:09:32 30° N 03:14:07 10° NE visible
24 Jul 9.9 04:59:01 10° NW 05:02:17 13° NNW 05:05:35 10° N visible
25 Jul 10.1 02:19:01 16° NE 02:19:01 16° NE 02:20:28 10° NE visible
25 Jul 9.6 04:05:55 15° NW 04:07:57 17° NNW 04:12:45 10° NNE visible
26 Jul 9.6 03:15:23 21° N 03:15:23 21° N 03:19:31 10° NNE visible
27 Jul 10.2 02:24:50 14° NNE 02:24:50 14° NNE 02:26:06 10° NNE visible
27 Jul 10.1 04:14:08 10° NNW 04:15:08 10° NNW 04:16:09 10° N visible
28 Jul 10.0 03:21:09 13° NNW 03:21:09 13° NNW 03:24:14 10° N visible
29 Jul 10.3 02:30:34 12° NNE 02:30:34 12° NNE 02:31:14 10° NNE visible
